| time (UTC) | temp C | wind direction | speed KPH | gust KPH | rain 1hr cm | rain 24hr cm | rain mn cm | humidity % | barometer mb |
| 20260903101004 | 21 | 232 | 0.0 | 0.0 | 0.00 | 0.00 | 0.00 | 100 | 1013.3 |
| 20260903100004 | 22 | 232 | 0.0 | 1.6 | 0.00 | 0.00 | 0.00 | 100 | 1013.3 |
| 20260903095004 | 22 | 232 | 0.0 | 1.6 | 0.00 | 0.00 | 0.00 | 99 | 1013.3 |
| 20260903093004 | 22 | 232 | 0.0 | 1.6 | 0.00 | 0.00 | 0.00 | 99 | 1013.3 |
| 20260903092005 | 22 | 232 | 0.0 | 1.6 | 0.00 | 0.00 | 0.00 | 99 | 1013.3 |
| 20260903091006 | 22 | 232 | 0.0 | 1.6 | 0.00 | 0.00 | 0.00 | 99 | 1013.3 |
| 20260903090004 | 22 | 232 | 0.0 | 0.0 | 0.00 | 0.00 | 0.00 | 99 | 1013.2 |
| 20260903085004 | 22 | 232 | 0.0 | 1.6 | 0.00 | 0.00 | 0.00 | 98 | 1013.2 |
| 20260903084004 | 22 | 232 | 0.0 | 1.6 | 0.00 | 0.00 | 0.00 | 98 | 1013.0 |
| 20260903083004 | 22 | 232 | 0.0 | 1.6 | 0.00 | 0.00 | 0.00 | 98 | 1012.9 |
| 20260903082004 | 22 | 232 | 0.0 | 1.6 | 0.00 | 0.00 | 0.00 | 98 | 1012.8 |
| 20260903081004 | 22 | 232 | 0.0 | 1.6 | 0.00 | 0.00 | 0.00 | 98 | 1012.8 |
| 20260903080005 | 22 | 232 | 0.0 | 0.0 | 0.00 | 0.00 | 0.00 | 98 | 1012.8 |
| 20260903075005 | 22 | 232 | 0.0 | 0.0 | 0.00 | 0.00 | 0.00 | 98 | 1012.8 |
| 20260903074005 | 22 | 232 | 0.0 | 0.0 | 0.00 | 0.00 | 0.00 | 97 | 1012.8 |
| 20260903073005 | 22 | 232 | 0.0 | 1.6 | 0.00 | 0.00 | 0.00 | 96 | 1012.8 |
| 20260903072005 | 22 | 232 | 0.0 | 1.6 | 0.00 | 0.00 | 0.00 | 96 | 1012.8 |
| 20260903071005 | 22 | 232 | 0.0 | 1.6 | 0.00 | 0.00 | 0.00 | 96 | 1012.8 |
| 20260903070005 | 22 | 232 | 0.0 | 3.2 | 0.00 | 0.00 | 0.00 | 96 | 1012.8 |
| 20260903065005 | 22 | 232 | 0.0 | 1.6 | 0.00 | 0.00 | 0.00 | 96 | 1012.9 |
| 20260903064005 | 23 | 232 | 0.0 | 1.6 | 0.00 | 0.00 | 0.00 | 96 | 1012.8 |
| 20260903063005 | 23 | 232 | 0.0 | 0.0 | 0.00 | 0.00 | 0.00 | 95 | 1012.9 |
| 20260903062005 | 23 | 232 | 0.0 | 0.0 | 0.00 | 0.00 | 0.00 | 95 | 1012.9 |
| 20260903060004 | 23 | 232 | 0.0 | 0.0 | 0.00 | 0.00 | 0.00 | 95 | 1012.8 |
| 20260903054004 | 23 | 232 | 0.0 | 1.6 | 0.00 | 0.00 | 0.00 | 94 | 1012.9 |
| 20260903052004 | 23 | 232 | 1.6 | 1.6 | 0.00 | 0.00 | 0.00 | 94 | 1012.9 |
| 20260903051004 | 23 | 232 | 0.0 | 0.0 | 0.00 | 0.00 | 0.00 | 94 | 1013.0 |
| 20260903050004 | 23 | 232 | 0.0 | 1.6 | 0.00 | 0.00 | 0.00 | 94 | 1013.0 |
| 20260903043004 | 23 | 232 | 0.0 | 0.0 | 0.00 | 0.00 | 0.00 | 92 | 1013.0 |
| 20260903042004 | 23 | 232 | 0.0 | 1.6 | 0.00 | 0.00 | 0.00 | 92 | 1013.0 |
| 20260903041005 | 24 | 232 | 0.0 | 1.6 | 0.00 | 0.00 | 0.00 | 92 | 1013.1 |
| 20260903035004 | 24 | 232 | 0.0 | 1.6 | 0.00 | 0.00 | 0.00 | 92 | 1013.2 |
| 20260903034004 | 24 | 232 | 0.0 | 1.6 | 0.00 | 0.00 | 0.00 | 91 | 1013.2 |
| 20260903033004 | 25 | 232 | 0.0 | 1.6 | 0.00 | 0.00 | 0.00 | 90 | 1013.3 |
| 20260903031004 | 25 | 232 | 0.0 | 0.0 | 0.00 | 0.00 | 0.00 | 88 | 1013.2 |
| 20260903030004 | 25 | 232 | 0.0 | 1.6 | 0.00 | 0.00 | 0.00 | 88 | 1013.2 |
| 20260903025005 | 25 | 232 | 1.6 | 1.6 | 0.00 | 0.00 | 0.00 | 89 | 1013.3 |
| 20260903023004 | 25 | 232 | 0.0 | 0.0 | 0.00 | 0.00 | 0.00 | 86 | 1013.2 |
| 20260903022004 | 25 | 232 | 0.0 | 0.0 | 0.00 | 0.00 | 0.00 | 85 | 1013.2 |
| 20260903021004 | 26 | 232 | 0.0 | 1.6 | 0.00 | 0.00 | 0.00 | 83 | 1013.2 |
| 20260903020004 | 26 | 232 | 0.0 | 0.0 | 0.00 | 0.00 | 0.00 | 82 | 1013.2 |
| 20260903015004 | 26 | 232 | 0.0 | 1.6 | 0.00 | 0.00 | 0.00 | 79 | 1013.1 |
| 20260903014005 | 26 | 232 | 0.0 | 1.6 | 0.00 | 0.00 | 0.00 | 77 | 1012.9 |
| 20260903012004 | 27 | 232 | 0.0 | 1.6 | 0.00 | 0.00 | 0.00 | 74 | 1012.8 |
| 20260903011004 | 27 | 232 | 1.6 | 1.6 | 0.00 | 0.00 | 0.00 | 72 | 1012.7 |
| 20260903010004 | 27 | 232 | 0.0 | 1.6 | 0.00 | 0.00 | 0.00 | 71 | 1012.7 |
| 20260903004004 | 28 | 232 | 0.0 | 0.0 | 0.00 | 0.00 | 0.00 | 67 | 1012.7 |
| 20260903002004 | 28 | 232 | 0.0 | 0.0 | 0.00 | 0.00 | 0.00 | 67 | 1012.7 |
| 20260903001004 | 29 | 236 | 0.0 | 0.0 | 0.00 | 0.00 | 0.00 | 67 | 1012.6 |
| 20260903000004 | 30 | 236 | 0.0 | 0.0 | 0.00 | 0.00 | 0.00 | 64 | 1012.7 |
| 20260902235004 | 31 | 236 | 0.0 | 0.0 | 0.00 | 0.00 | 0.00 | 59 | 1012.7 |
| 20260902234004 | 31 | 236 | 0.0 | 0.0 | 0.00 | 0.00 | 0.00 | 57 | 1012.8 |
| 20260902233004 | 32 | 236 | 0.0 | 0.0 | 0.00 | 0.00 | 0.00 | 53 | 1012.8 |
| 20260902232004 | 32 | 236 | 0.0 | 0.0 | 0.00 | 0.00 | 0.00 | 54 | 1012.8 |
| 20260902230004 | 32 | 236 | 0.0 | 0.0 | 0.00 | 0.00 | 0.00 | 53 | 1012.9 |
| 20260902225004 | 33 | 236 | 0.0 | 0.0 | 0.00 | 0.00 | 0.00 | 53 | 1013.0 |
| 20260902224004 | 33 | 236 | 0.0 | 1.6 | 0.00 | 0.00 | 0.00 | 51 | 1013.0 |
| 20260902223004 | 33 | 236 | 0.0 | 1.6 | 0.00 | 0.00 | 0.00 | 52 | 1012.9 |
| 20260902222004 | 33 | 236 | 0.0 | 4.8 | 0.00 | 0.00 | 0.00 | 49 | 1013.0 |
| 20260902221004 | 33 | 26 | 0.0 | 1.6 | 0.00 | 0.00 | 0.00 | 48 | 1013.0 |
| 20260902214004 | 34 | 26 | 1.6 | 4.8 | 0.00 | 0.00 | 0.00 | 47 | 1013.1 |
| 20260902213004 | 35 | 32 | 1.6 | 4.8 | 0.00 | 0.00 | 0.00 | 44 | 1013.1 |
| 20260902210004 | 35 | 18 | 1.6 | 4.8 | 0.00 | 0.00 | 0.00 | 41 | 1013.3 |
| 20260902205003 | 35 | 5 | 0.0 | 3.2 | 0.00 | 0.00 | 0.00 | 44 | 1013.3 |
| 20260902203003 | 35 | 191 | 1.6 | 4.8 | 0.00 | 0.00 | 0.00 | 42 | 1013.4 |
| 20260902202004 | 35 | 280 | 1.6 | 4.8 | 0.00 | 0.00 | 0.00 | 41 | 1013.7 |
| 20260902201004 | 35 | 229 | 4.8 | 9.7 | 0.00 | 0.00 | 0.00 | 43 | 1013.7 |
| 20260902200004 | 35 | 0 | 1.6 | 4.8 | 0.00 | 0.00 | 0.00 | 43 | 1013.8 |
| 20260902195004 | 36 | 253 | 4.8 | 8.0 | 0.00 | 0.00 | 0.00 | 44 | 1013.9 |
| 20260902194004 | 35 | 277 | 3.2 | 4.8 | 0.00 | 0.00 | 0.00 | 43 | 1014.0 |
| 20260902193004 | 35 | 102 | 4.8 | 8.0 | 0.00 | 0.00 | 0.00 | 41 | 1014.1 |
| 20260902191004 | 35 | 193 | 4.8 | 8.0 | 0.00 | 0.00 | 0.00 | 42 | 1014.4 |
| 20260902190004 | 35 | 153 | 1.6 | 4.8 | 0.00 | 0.00 | 0.00 | 44 | 1014.4 |
| 20260902185004 | 34 | 244 | 3.2 | 4.8 | 0.00 | 0.00 | 0.00 | 46 | 1014.4 |
| 20260902184003 | 34 | 281 | 3.2 | 9.7 | 0.00 | 0.00 | 0.00 | 47 | 1014.6 |
| 20260902183004 | 33 | 105 | 3.2 | 8.0 | 0.00 | 0.00 | 0.00 | 46 | 1014.6 |
| 20260902182004 | 33 | 225 | 3.2 | 4.8 | 0.00 | 0.00 | 0.00 | 51 | 1014.7 |
| 20260902181004 | 33 | 219 | 3.2 | 8.0 | 0.00 | 0.00 | 0.00 | 47 | 1014.8 |
| 20260902180006 | 34 | 265 | 4.8 | 9.7 | 0.00 | 0.00 | 0.00 | 51 | 1014.9 |
| 20260902174004 | 33 | 343 | 0.0 | 8.0 | 0.00 | 0.00 | 0.00 | 50 | 1015.0 |
| 20260902172004 | 33 | 250 | 1.6 | 8.0 | 0.00 | 0.00 | 0.00 | 51 | 1015.4 |
| 20260902171004 | 33 | 238 | 6.4 | 8.0 | 0.00 | 0.00 | 0.00 | 52 | 1015.5 |
| 20260902170004 | 33 | 219 | 1.6 | 4.8 | 0.00 | 0.00 | 0.00 | 54 | 1015.7 |
| 20260902165004 | 33 | 30 | 3.2 | 8.0 | 0.00 | 0.00 | 0.00 | 51 | 1015.8 |
| 20260902164003 | 32 | 268 | 3.2 | 9.7 | 0.00 | 0.00 | 0.00 | 55 | 1015.9 |
| 20260902163004 | 32 | 201 | 1.6 | 4.8 | 0.00 | 0.00 | 0.00 | 52 | 1016.0 |
| 20260902162004 | 31 | 171 | 1.6 | 8.0 | 0.00 | 0.00 | 0.00 | 56 | 1016.0 |
| 20260902155003 | 30 | 47 | 3.2 | 4.8 | 0.00 | 0.00 | 0.00 | 62 | 1016.1 |
| 20260902154003 | 30 | 240 | 3.2 | 4.8 | 0.00 | 0.00 | 0.00 | 66 | 1016.2 |
| 20260902153003 | 29 | 223 | 3.2 | 4.8 | 0.00 | 0.00 | 0.00 | 66 | 1016.3 |
| 20260902151003 | 29 | 273 | 3.2 | 8.0 | 0.00 | 0.00 | 0.00 | 65 | 1016.1 |
| 20260902150005 | 29 | 249 | 1.6 | 8.0 | 0.00 | 0.00 | 0.00 | 65 | 1016.1 |
| 20260902144005 | 28 | 222 | 4.8 | 8.0 | 0.00 | 0.00 | 0.00 | 68 | 1016.0 |
| 20260902143005 | 28 | 248 | 3.2 | 4.8 | 0.00 | 0.00 | 0.00 | 72 | 1016.0 |
| 20260902141005 | 27 | 244 | 1.6 | 4.8 | 0.00 | 0.00 | 0.00 | 72 | 1016.0 |
| 20260902140004 | 27 | 252 | 3.2 | 4.8 | 0.00 | 0.00 | 0.00 | 72 | 1016.0 |
| 20260902135004 | 27 | 188 | 1.6 | 3.2 | 0.00 | 0.00 | 0.00 | 75 | 1016.0 |
| 20260902134005 | 27 | 291 | 0.0 | 1.6 | 0.00 | 0.00 | 0.00 | 80 | 1016.0 |
| 20260902130005 | 24 | 196 | 0.0 | 0.0 | 0.00 | 0.00 | 0.00 | 99 | 1016.0 |
| 20260902125005 | 23 | 196 | 1.6 | 1.6 | 0.00 | 0.00 | 0.00 | 100 | 1016.0 |
| 20260902124005 | 22 | 196 | 0.0 | 1.6 | 0.00 | 0.00 | 0.00 | 100 | 1015.9 |
| 20260902122004 | 22 | 196 | 0.0 | 0.0 | 0.00 | 0.00 | 0.00 | 100 | 1015.9 |
| 20260902121005 | 21 | 196 | 0.0 | 1.6 | 0.00 | 0.00 | 0.00 | 100 | 1015.7 |
| 20260902120005 | 21 | 196 | 0.0 | 0.0 | 0.00 | 0.00 | 0.00 | 100 | 1015.6 |
| 20260902115004 | 21 | 196 | 0.0 | 0.0 | 0.00 | 0.00 | 0.00 | 100 | 1015.5 |
| 20260902114005 | 21 | 196 | 0.0 | 1.6 | 0.00 | 0.00 | 0.00 | 100 | 1015.4 |
| 20260902113005 | 21 | 196 | 0.0 | 0.0 | 0.00 | 0.00 | 0.00 | 100 | 1015.1 |
| 20260902112004 | 21 | 196 | 0.0 | 0.0 | 0.00 | 0.00 | 0.00 | 100 | 1015.0 |
| 20260902111005 | 21 | 196 | 0.0 | 0.0 | 0.00 | 0.00 | 0.00 | 100 | 1014.9 |
| 20260902110007 | 21 | 196 | 0.0 | 1.6 | 0.00 | 0.00 | 0.00 | 100 | 1014.9 |
| 20260902105005 | 21 | 196 | 0.0 | 1.6 | 0.00 | 0.00 | 0.00 | 100 | 1014.7 |
| 20260902104005 | 21 | 196 | 1.6 | 1.6 | 0.00 | 0.00 | 0.00 | 100 | 1014.6 |
| 20260902103005 | 21 | 196 | 0.0 | 0.0 | 0.00 | 0.00 | 0.00 | 100 | 1014.5 |